Regional Weather Roundup
Issued by NWS Boston, MA

Current Version | Previous Version | Text Only | Print | Product List | Glossary On
Versions: 1 2 3 4 5 6 7 8 9 10 11 12 13 14 15 16 17 18 19 20 21 22 23 24 25 26 27 28 29 30 31 32 33 34 35 36 37 38 39 40 41 42 43 44 45 46 47 48 49 50
143
ASUS41 KBOX 250110
RWRBOX

REGIONAL WEATHER ROUNDUP
NATIONAL WEATHER SERVICE BOSTON/NORTON MA
900 PM EDT TUE APR 24 2018

NOTE:  "FAIR" INDICATES FEW OR NO CLOUDS BELOW 12,000 FEET WITH NO
SIGNIFICANT WEATHER AND/OR OBSTRUCTIONS TO VISIBILITY.

MAZALL-250200-
EASTERN MASSACHUSETTS

CITY           SKY/WX    TMP DP  RH WIND       PRES   REMARKS
BOSTON         CLOUDY    54  36  50 S13       30.27R
BEVERLY        FAIR      55  29  36 S13G21    30.26R
LAWRENCE       FAIR      59  35  40 S9G18     30.26R
BEDFORD        FAIR      55  37  50 S13G21    30.25R
BLUE HILL        N/A     51  35  54 S16G26    30.26R
NORWOOD        FAIR      56  36  47 S14       30.28R
MARSHFIELD     FAIR      54  39  58 S9G16     30.30R
PLYMOUTH       FAIR      52  40  63 S7        30.31R
TAUNTON        FAIR      52  40  63 S6        30.30R
NEW BEDFORD    FAIR      50  39  66 S9        30.30R
$$

MAZALL-250200-
CAPE COD AND THE ISLANDS

CITY           SKY/WX    TMP DP  RH WIND       PRES   REMARKS
FALMOUTH       CLOUDY    50  39  66 S10       30.33
HYANNIS        FAIR      50  38  63 S8        30.31R
CHATHAM        FAIR      48  42  80 S7        30.34R
PROVINCETOWN   FAIR      49  41  74 S13G21    30.32R
NANTUCKET      FAIR      45  42  89 SE6       30.33R
MARTHAS VNYRD  MOCLDY    49  40  71 SE8       30.31S
$$

MAZALL-250200-
CENTRAL AND WESTERN MASSACHUSETTS

CITY           SKY/WX    TMP DP  RH WIND       PRES   REMARKS
WORCESTER      FAIR      52  37  56 S10       30.26R
FITCHBURG      FAIR      60  39  45 S12       30.25R
ORANGE         FAIR      56  37  49 S10       30.24R
SPRINGFIELD    NOT AVBL
WESTFIELD      FAIR      56  38  50 S8        30.23R
NORTH ADAMS    FAIR      58  33  39 MISG      30.20R
PITTSFIELD     FAIR      55  32  41 VRB6      30.20R
$$

RIZALL-250200-
RHODE ISLAND

CITY           SKY/WX    TMP DP  RH WIND       PRES   REMARKS
PROVIDENCE     CLOUDY    50  41  71 S12       30.30R
NEWPORT        FAIR      49  40  71 S12       30.29S
BLOCK ISLAND   CLOUDY    50  41  71 SE16      30.29S
SMITHFIELD     FAIR      51  37  58 MISG      30.29R
WESTERLY       CLOUDY    50  42  74 SE12      30.29S
$$

CTZALL-250200-
CONNECTICUT

CITY           SKY/WX    TMP DP  RH WIND       PRES   REMARKS
BRADLEY INTL   CLOUDY    57  39  51 S10       30.25R
HARTFORD       MOCLDY    57  39  51 S10       30.26R
BRIDGEPORT     FAIR      54  40  59 SE9       30.25S
DANBURY        FAIR      55  38  52 SE9       30.25R
GROTON         CLOUDY    50  43  77 SE14      30.27S
NEW HAVEN      FAIR      53  41  63 SE10      30.26S
CHESTER        MOCLDY    52  39  62 SE3       30.27S
MERIDEN        MOCLDY    55  39  54 S7        30.26R
WILLIMANTIC    MOCLDY    55  36  48 S10       30.28R
OXFORD         MOCLDY    53  40  61 SE8       30.25S
$$

MEZ002-015-021-024-NHZ003-005-008-011-012-014-VTZ005-008-250200-
NORTHERN NEW ENGLAND

CITY           SKY/WX    TMP DP  RH WIND       PRES   REMARKS
PORTLAND ME    MOCLDY    51  36  56 S15       30.21S
BANGOR ME      FAIR      49  38  65 S12       30.21R
CONCORD NH     FAIR      61  30  31 S10       30.20R
MANCHESTER NH  CLOUDY    63  28  26 S13       30.21R
NASHUA NH      FAIR      59  33  37 S8        30.24R
PORTSMOUTH NH  CLOUDY    56  35  45 S7        30.21
JAFFREY NH     FAIR      55  31  39 S7        30.23R
KEENE NH       FAIR      57  32  38 S5        30.22R
BURLINGTON VT  MOCLDY    65  20  17 S9        30.09S
MT. WASHINGTON MOCLDY    34  27  75 SW21        N/A  WCI  22
$$

NYZ052-076-250200-
EASTERN NEW YORK

CITY           SKY/WX    TMP DP  RH WIND       PRES   REMARKS
ALBANY         CLOUDY    61  32  33 S12G22    30.18R
NEW YORK CITY  CLOUDY    58  40  51 SE12      30.22S
$$

ANZALL-250200-
MARINE OBSERVATIONS

STATION/POSITION TIME  TEMP    WIND        PRES    VSBY  WAVE
                       AIR SEA DIR/SP/G                  HT/PER
                 (UTC) (F)     (DEG/KT/KT) (MB)    (MI)  (FT/S)
BOSTON BUOY      NOT AVBL
BUZZARDS BAY     NOT AVBL
NANTUCKET SOUND  2350   47 45  160/ 10/ 12 1026.5          1
MASS BAY-STELLWA 0004   48 44              1023.1R         3/ 4
ISLE OF SHOALS   NOT AVBL
S OF BLOCK IS    0043      45                N/A           1/ 8
$$

......................KEY.........................
  SKY/WX - SKY CONDITION/PRESENT WEATHER
  TMP    - TEMPERATURE IN FAHRENHEIT
  DWPT   - DEWPOINT IN FAHRENHEIT
  RH     - RELATIVE HUMIDITY IN PERCENT
  WIND   - DIRECTION AND SPEED IN MPH
  PRES   - MEAN SEA LEVEL PRESSURE IN INCHES OF HG
  WCI    - WIND CHILL INDEX
  VSB    - VISIBILITY IN MILES
  HX     - HEAT INDEX
  TC     - TEMPERATURE IN CELSIUS
  VRB    - VARIABLE WIND DIRECTION
  N/A    - NOT AVAILABLE




USA.gov is the U.S. government's official web portal to all federal, state and local government web resources and services.